Powrót do katalogu

STARLINK-31959

AktywnyŁącznośćVLEO
NORAD 59925·PAYLOAD·🇺🇸 United States

Wystrzelony Jun 1, 2024 z Cape Canaveral Space Force Station

Loading…

Następne Przeloty (najbliższe 24 godziny)

TLE

ŚwieżeSource: CelesTrak SupGP

Epoka: Sep 14, 2026, 22:35 UTC

1 59925C 24106D   26257.94145833 -.00024040  00000+0 -87081-3 0  2577
2 59925  43.0038 339.8898 0001868 273.4630 310.6225 15.27586142    17

Śledź STARLINK-31959 w czasie rzeczywistym z AllMySat

Download on the App Store